Regional Weather Roundup
Issued by NWS

Home | Current Version | Previous Version | Text Only | Print | Product List | Glossary On
Versions: 1 2 3 4 5 6 7 8 9 10 11 12 13 14 15 16 17 18 19 20 21 22 23 24 25 26 27 28 29 30 31 32 33 34 35 36 37 38 39 40 41 42 43 44 45 46 47 48 49 50
000
ASUS43 KLMK 030402
RWRKY
KENTUCKY REGIONAL WEATHER ROUNDUP
NATIONAL WEATHER SERVICE LOUISVILLE KY
1200 AM EDT TUE MAY 03 2016

NOTE "FAIR" INDICATES FEW OR NO CLOUDS BELOW 12,000 FEET
WITH NO SIGNIFICANT WEATHER AND/OR OBSTRUCTIONS TO VISIBILITY.

KYZ001>023-026-027-061>063-070>075-030500-
WESTERN AND SOUTH CENTRAL KENTUCKY

CITY           SKY/WX    TMP DP  RH WIND       PRES   REMARKS
PADUCAH        CLOUDY    57  50  77 CALM      30.01S
HENDERSON      CLOUDY    57  46  67 NW5       29.99F
OWENSBORO      CLOUDY    58  51  77 NW7       29.99F
HOPKINSVILLE   NOT AVBL
BOWLING GREEN  CLOUDY    59  53  80 NW6       29.97S
GLASGOW        NOT AVBL
$$

KYZ024-025-028>034-038-045-046-053-030500-
NORTH CENTRAL KENTUCKY

CITY           SKY/WX    TMP DP  RH WIND       PRES   REMARKS
LOUISVILLE/SDF CLOUDY    59  48  67 NW9       29.96F
LOUISVILLE/LOU CLOUDY    59  49  69 NW6       29.96F
FORT KNOX      NOT AVBL
$$

KYZ035>037-039>044-047>052-055>060-089>105-030500-
NORTHEAST KENTUCKY

CITY           SKY/WX    TMP DP  RH WIND       PRES   REMARKS
LEXINGTON      PTCLDY    57  51  80 NW3       29.94F
COVINGTON      MOCLDY    54  51  90 W3        29.94F
FRANKFORT      NOT AVBL
$$

KYZ054-064>069-076>088-106>120-030500-
SOUTHEAST KENTUCKY

CITY           SKY/WX    TMP DP  RH WIND       PRES   REMARKS
JACKSON        CLOUDY    58  56  93 W5        29.93S
LONDON         CLOUDY    60  58  92 W5        29.94F
SOMERSET       NOT AVBL
MIDDLESBORO    CLOUDY    59  59 100 CALM      29.94S
MONTICELLO     LGT RAIN  59  57  93 CALM      29.97S
$$





USA.gov is the U.S. government's official web portal to all federal, state and local government web resources and services.